Change the Weather History Date:

Tuesday, June 11, 2013

  Actual Average (KMKC) Record (KMKC)
Temperature  
Mean Temperature 81 °F -  
Max Temperature 93 °F 80 °F 96 °F (2013)
Min Temperature 71 °F 62 °F 62 °F (1997)
Cooling Degree Days 16    
Growing Degree Days 31 (Base 50)    
Moisture  
Dew Point 64 °F    
Average Humidity 60    
Maximum Humidity 83    
Minimum Humidity 36    
Precipitation  
Precipitation 0.00 in - - ()
Sea Level Pressure  
Sea Level Pressure 29.85 in    
Wind  
Wind Speed 11 mph (SSW)    
Max Wind Speed 20 mph    
Max Gust Speed 29 mph    
Visibility 10 miles    
Events Thunderstorm    
Averages and records for this station are not official NWS values.
T = Trace of Precipitation, MM = Missing Value Source: NWS Daily Summary

Daily Weather History Graph

Daily Weather History Graph

Search for Another Location

Airport or City:

Trip Planner

Search our weather history database for the weather conditions in past years. The results will help you decide how hot, cold, wet, or windy it might be!

Date:

Astronomy

Jun. 11, 2013 Rise Set
Actual Time 5:51 AM CDT 8:43 PM CDT
Civil Twilight 5:19 AM CDT 9:15 PM CDT
Nautical Twilight 4:39 AM CDT 9:55 PM CDT
Astronomical Twilight 3:53 AM CDT 10:41 PM CDT
Moon 8:34 AM CDT (6/11) 10:47 PM CDT (6/11)
Length of Visible Light 15h 55m
Length of Day
14h 51m
Waxing Crescent, 8% of the Moon is Illuminated
Jun 11
Waxing Crescent
Jun 16
First Quarter
Jun 23
Full
Jun 29
Last Quarter
Jul 8
New

Hourly Weather History & Observations

Time (CDT) Temp. Heat Index Dew Point Humidity Pressure Visibility Wind Dir Wind Speed Gust Speed Precip Events Conditions
12:53 AM 73.9 °F - 61.0 °F 64% 29.85 in 10.0 mi SE 8.1 mph - N/A   Clear
1:53 AM 73.9 °F - 61.0 °F 64% 29.84 in 10.0 mi SSE 9.2 mph - N/A   Clear
2:53 AM 73.0 °F - 62.1 °F 68% 29.83 in 10.0 mi SSE 9.2 mph 17.3 mph N/A   Clear
3:53 AM 72.0 °F - 63.0 °F 73% 29.82 in 10.0 mi South 8.1 mph - N/A   Clear
4:53 AM 73.0 °F - 64.9 °F 76% 29.82 in 10.0 mi SSW 6.9 mph 16.1 mph N/A   Clear
5:30 AM 71.6 °F - 64.4 °F 78% 29.87 in 10.0 mi SW 4.6 mph - N/A Thunderstorm Clear
5:45 AM 71.6 °F - 66.2 °F 83% 29.86 in 10.0 mi SSW 9.2 mph - N/A   Clear
5:53 AM 73.0 °F - 66.0 °F 79% 29.83 in 10.0 mi SSW 11.5 mph - N/A Thunderstorm Scattered Clouds
6:07 AM 73.4 °F - 66.2 °F 78% 29.91 in 10.0 mi West 9.2 mph - N/A Thunderstorm Scattered Clouds
6:37 AM 73.4 °F - 66.2 °F 78% 29.90 in 10.0 mi SW 4.6 mph - N/A   Scattered Clouds
6:53 AM 72.0 °F - 66.0 °F 81% 29.87 in 10.0 mi SW 9.2 mph - N/A   Partly Cloudy
7:53 AM 75.0 °F - 66.0 °F 73% 29.86 in 10.0 mi SSW 15.0 mph - N/A   Clear
8:53 AM 77.0 °F - 66.0 °F 69% 29.85 in 10.0 mi SW 16.1 mph 23.0 mph N/A   Clear
9:53 AM 80.1 °F 81.9 °F 64.9 °F 60% 29.85 in 10.0 mi SW 12.7 mph 21.9 mph N/A   Clear
10:53 AM 82.0 °F 83.1 °F 63.0 °F 52% 29.87 in 10.0 mi SW 19.6 mph 26.5 mph N/A   Clear
11:53 AM 84.0 °F 86.3 °F 66.0 °F 55% 29.87 in 10.0 mi SSW 13.8 mph - N/A   Clear
12:53 PM 89.1 °F 90.3 °F 64.0 °F 43% 29.86 in 10.0 mi SW 17.3 mph 28.8 mph N/A   Clear
1:53 PM 91.0 °F 90.9 °F 61.0 °F 36% 29.87 in 10.0 mi WSW 16.1 mph 28.8 mph N/A   Clear
2:53 PM 91.9 °F 93.3 °F 64.0 °F 39% 29.86 in 10.0 mi SSW 18.4 mph 26.5 mph N/A   Clear
3:53 PM 91.9 °F 92.9 °F 63.0 °F 38% 29.86 in 10.0 mi SW 17.3 mph 26.5 mph N/A   Clear
4:53 PM 91.9 °F 92.9 °F 63.0 °F 38% 29.84 in 10.0 mi SSW 16.1 mph 25.3 mph N/A   Clear
5:53 PM 91.0 °F 91.9 °F 63.0 °F 39% 29.83 in 10.0 mi South 11.5 mph - N/A   Clear
6:53 PM 89.1 °F 90.0 °F 63.0 °F 42% 29.81 in 10.0 mi SSW 13.8 mph 19.6 mph N/A   Clear
7:53 PM 87.1 °F 88.9 °F 64.9 °F 48% 29.79 in 10.0 mi SSW 12.7 mph 20.7 mph N/A   Clear
8:53 PM 84.0 °F 86.3 °F 66.0 °F 55% 29.78 in 10.0 mi South 11.5 mph - N/A   Clear
9:53 PM 82.9 °F 85.0 °F 66.0 °F 56% 29.81 in 10.0 mi South 12.7 mph 20.7 mph N/A   Clear
10:53 PM 82.0 °F 84.1 °F 66.0 °F 58% 29.83 in 10.0 mi South 11.5 mph 18.4 mph N/A   Clear
11:53 PM 81.0 °F 83.3 °F 66.9 °F 62% 29.84 in 10.0 mi SSW 13.8 mph 20.7 mph N/A   Clear